SCP
0 0 0 0 0 0 0 0 0 0 0 0 0 0 0 0 0 0 0 0 0 0 0 0 0 0 0 0 0 0 0 0 0 0 0 0 0 0 0 0 0 0 0
0 0 0 0 0 0 0 0 0 0 0 0 0 0 0 0 0 0 0 0 0 0 0 0 0 0 0 0 0 0 0 0 0 0 0 0 0 0 0 0 0 0 0
0 0 0 0 0 0 0 0 0 0 0 0 0 0 0 0 0 0 0 0 0 0 0 0 0 0 0 0 0 0 0 0 0 0 0 0 0 0 0 0 0 0 0
0 0 0 0 0 0 0 0 0 0 0 0 0 0 0 0 0 0 0 0 0 0 0 0 0 0 0 0 0 0 0 0 0 0 0 0 0 0 0 0 0 0 0
0 0 0 0 0 0 0 0 0 0 0 0 0 0 0 0 0 0 0 0 0 0 0 0 0 0 0 0 0 0 0 0 0 0 0 0 0 0 0 0 0 0 0
1 1 0 0 0 0 0 0 0 0 0 0 0 0 0 0 0 0 0 0 0 0 0 0 0 0 0 0 0 0 0 0 0 0 0 0 0 0 0 0 0 0 0
1 1 1 1 1 0 0 0 0 0 0 0 0 0 0 0 0 0 0 0 0 0 0 0 0 0 0 0 0 0 0 0 0 0 0 0 0 0 0 0 0 0 0
1 1 1 1 1 0 0 0 0 0 0 0 0 0 0 0 0 0 0 0 0 0 0 0 0 0 0 0 0 0 0 0 0 0 0 0 0 0 0 0 0 0 0
1 1 1 1 1 0 0 0 0 0 0 0 0 0 0 0 0 0 0 0 0 0 0 0 0 0 0 0 0 0 0 0 0 0 0 0 0 0 0 0 0 0 0
1 1 1 1 1 0 0 0 0 0 0 0 0 0 0 0 0 0 0 0 0 0 0 0 0 0 0 0 0 0 0 0 0 0 0 0 0 0 0 0 0 0 0
1 1 1 1 1 1 0 0 0 0 0 0 0 0 0 0 0 0 0 0 0 0 0 0 0 0 0 0 0 0 0 0 0 0 0 0 0 0 0 0 0 0 0
1 1 1 1 1 1 0 0 0 0 0 0 0 0 0 0 0 0 0 0 0 0 0 0 0 0 0 0 0 0 0 0 0 0 0 0 0 0 0 0 0 0 0
1 1 1 1 1 1 0 0 0 0 0 0 0 0 0 0 0 0 0 0 0 0 0 0 0 0 0 0 0 0 0 0 0 0 0 0 0 0 0 0 0 0 0
1 1 1 1 1 1 0 0 0 0 0 0 0 0 0 0 0 0 0 0 0 0 0 0 0 0 0 0 0 0 0 0 0 0 0 0 0 0 0 0 0 0 0
1 1 0 0 0 0 0 0 0 0 0 0 0 0 0 0 0 0 0 0 0 0 0 0 0 0 0 0 0 0 0 0 0 0 0 0 0 0 0 0 0 0 0
0 0 0 0 0 0 0 0 0 0 0 0 0 0 0 0 0 0 0 0 0 0 0 0 0 0 0 0 0 0 0 0 0 0 0 0 0 0 0 0 0 0 0
0 0 0 0 0 0 0 0 0 0 0 0 0 0 0 0 0 0 0 0 0 0 0 0 0 0 0 0 0 0 0 0 0 0 0 0 0 0 0 0 0 0 0
0 0 0 0 0 0 0 0 0 0 0 0 0 0 0 0 0 0 0 0 0 0 0 0 0 0 0 0 0 0 0 0 0 0 0 0 0 0 0 0 0 0 0
0 0 0 0 0 0 0 0 0 0 0 0 0 0 0 0 0 0 0 0 0 0 0 0 0 0 0 0 0 0 0 0 0 0 0 0 0 0 0 0 0 0 0
0 0 0 0 0 0 0 0 0 0 0 0 0 0 0 0 0 0 0 0 0 0 0 0 0 0 0 0 0 0 0 0 0 0 0 0 0 0 0 0 0 0 0
0 0 0 0 0 0 0 0 0 0 0 0 0 0 0 0 0 0 0 0 0 0 0 0 0 0 0 0 0 0 0 0 0 0 0 0 0 0 0 0 0 0 0
0 0 0 0 0 0 0 0 0 0 0 0 0 0 0 0 0 0 0 0 0 0 0 0 0 0 0 0 0 0 0 0 0 0 0 0 0 0 0 0 0 0 0
0 0 0 0 0 0 0 0 0 0 0 0 0 0 0 0 0 0 0 0 0 0 0 0 0 0 0 0 0 0 0 0 0 0 0 0 0 0 0 0 0 0 0
0 0 0 0 0 0 0 0 0 0 0 0 0 0 0 0 0 0 0 0 0 0 0 0 0 0 0 0 0 0 0 0 0 0 0 0 0 0 0 0 0 0 0
0 0 0 0 0 0 0 0 0 0 0 0 0 0 0 0 0 0 0 0 0 0 0 0 0 0 0 0 0 0 0 0 0 0 0 0 0 0 0 0 0 0 0
0 0 0 0 0 0 0 0 0 0 0 0 0 0 0 0 0 0 0 0 0 0 0 0 0 0 0 0 0 0 0 0 0 0 0 0 0 0 0 0 0 0 0
Wind_Speed
7 6 6 5 6 5 6 6 6 6 6 6 5 5 5 4 3 3 5 6 2 1 1 3 3 4 4 3 3 4 4 5 5 5 5 5 5 5 5 5 5 4 3
7 6 7 6 6 5 5 6 7 6 6 5 6 6 5 5 4 3 3 7 6 2 1 2 3 4 4 3 3 3 4 4 4 4 4 4 5 4 4 4 3 3 2
8 7 6 6 6 6 8 6 7 6 5 6 7 7 5 5 4 4 4 2 6 7 3 2 2 3 3 3 3 3 3 3 3 3 4 4 4 3 3 3 3 2 2
9 7 6 7 6 5 5 5 6 6 6 7 6 6 6 5 6 4 4 5 3 4 7 5 2 3 3 3 3 3 3 3 3 3 3 3 3 3 2 3 3 3 3
10 8 7 7 8 6 5 6 6 6 6 6 5 5 5 5 5 5 6 5 5 4 4 8 6 3 3 3 3 3 4 4 3 3 3 3 2 2 2 2 3 3 3
9 8 7 9 8 6 6 6 7 6 5 5 6 5 5 5 5 5 5 4 4 6 4 5 7 7 6 4 3 4 4 4 4 4 3 3 3 2 1 2 2 3 3
9 8 7 7 7 6 7 8 7 7 6 6 6 5 5 7 6 5 5 5 6 5 6 6 4 4 6 8 6 5 5 4 4 4 3 3 3 2 1 1 1 2 2
9 8 8 6 7 6 7 7 6 5 6 6 5 4 5 6 5 6 6 6 7 6 7 6 6 6 4 5 7 7 4 4 4 4 4 4 3 2 1 1 1 2 2
9 8 8 7 7 7 7 7 7 7 6 6 7 5 5 5 4 6 7 7 7 5 6 6 7 7 7 5 6 9 7 5 5 5 5 4 4 3 2 2 1 2 2
8 9 9 9 8 7 7 7 7 6 6 5 4 5 6 3 3 3 4 6 6 7 7 6 6 7 7 5 4 5 9 7 7 7 6 5 4 4 3 3 2 1 2
6 8 9 9 9 7 8 8 7 7 6 6 5 4 5 4 6 4 4 4 4 5 5 6 5 5 6 6 5 6 9 8 8 8 7 7 6 5 5 4 4 3 3
4 6 7 8 8 7 8 8 8 9 8 8 6 5 5 4 5 4 5 4 3 3 3 3 4 4 4 5 6 5 8 8 8 8 8 7 7 6 6 5 5 5 5
2 3 5 6 6 6 7 7 7 8 9 8 6 5 5 4 3 3 4 4 3 3 3 3 3 3 3 4 4 6 8 8 9 8 8 7 7 7 6 6 6 6 5
0 1 2 3 5 6 6 7 6 7 6 7 7 6 4 3 3 3 3 3 3 3 4 4 2 2 2 3 1 4 6 9 8 8 8 8 7 7 7 7 7 7 6
1 2 1 2 3 4 5 5 5 6 6 6 6 6 5 4 4 4 3 3 3 3 3 2 1 1 1 1 2 4 5 7 8 8 7 7 7 7 8 7 7 6 6
3 2 2 2 2 3 3 3 3 4 5 5 4 6 5 4 4 4 4 4 4 3 2 1 2 1 1 1 2 3 1 5 6 6 7 7 7 7 7 7 7 7 7
5 4 4 3 3 3 2 2 2 3 4 4 4 4 4 4 3 4 4 3 3 3 3 1 1 1 2 2 2 2 3 4 4 6 5 6 6 6 7 7 7 7 7
7 6 5 5 5 4 3 2 2 2 3 3 4 4 4 3 4 3 3 4 4 3 3 3 2 1 2 1 2 2 2 2 2 6 3 3 3 4 4 5 5 6 7
8 8 7 6 6 5 4 3 2 2 3 2 3 3 3 4 4 3 4 3 3 3 3 2 2 1 1 1 1 2 2 1 2 5 4 4 3 1 1 2 2 3 5
9 8 8 7 6 6 5 4 3 2 2 2 2 2 2 3 3 3 3 3 3 3 3 3 2 2 2 1 1 2 3 2 2 3 4 4 5 5 5 5 4 3 3
10 9 9 8 7 6 7 6 3 2 3 3 3 3 3 4 6 3 1 2 3 3 3 3 3 3 2 2 1 1 3 3 4 3 3 3 3 4 4 5 6 6 5
10 10 9 8 8 7 9 8 5 3 3 3 4 4 5 5 7 7 6 5 3 2 3 3 2 2 3 3 2 1 2 2 3 2 3 4 4 5 6 6 9 10 9
9 9 9 9 9 10 11 10 7 4 4 4 4 4 4 4 4 7 8 8 8 7 3 2 4 3 3 3 2 2 2 3 3 2 2 3 4 5 5 8 12 13 12
8 8 9 9 9 10 12 10 7 5 6 5 5 4 4 5 5 4 6 7 8 8 5 4 6 6 5 3 3 3 4 5 5 3 2 3 3 4 5 6 12 14 13
8 8 8 9 9 10 12 10 6 5 6 7 6 6 5 6 6 3 5 8 9 8 11 13 12 10 10 9 5 2 3 3 4 3 3 2 3 3 4 5 8 12 13
7 7 8 8 9 10 12 12 8 4 5 5 5 6 9 7 6 5 4 6 7 7 7 8 7 7 7 7 5 3 2 2 3 3 2 1 2 2 3 4 4 4 7
Wind_Direction
229 224 223 213 222 217 202 218 227 213 221 218 218 221 207 198 205 183 125 127 133 120 146 149 141 136 136 133 137 138 139 141 142 147 145 141 138 135 135 137 139 138 141
232 229 234 219 223 221 221 220 220 211 219 215 216 217 227 210 213 182 166 146 149 143 145 150 152 151 152 143 137 145 153 154 154 157 156 158 155 154 156 162 162 169 178
236 230 233 225 220 216 217 221 218 219 221 215 217 221 218 223 229 199 173 185 160 158 161 162 163 161 161 157 154 150 151 158 161 166 168 170 169 172 187 195 201 208 221
238 235 232 231 225 218 217 210 226 215 217 220 218 209 210 195 226 212 194 188 181 164 159 153 160 168 172 172 171 167 163 160 164 171 171 176 181 189 208 227 233 237 248
241 232 232 234 223 214 219 218 216 223 222 223 227 216 223 203 212 214 216 197 170 187 165 146 166 169 175 182 182 174 169 169 176 177 175 177 185 200 219 237 248 258 267
245 240 234 235 232 216 218 224 219 225 237 226 232 222 220 218 217 221 227 208 205 191 181 168 179 168 172 177 187 184 179 179 184 185 182 178 179 193 225 240 254 267 273
232 232 234 234 228 222 219 221 222 220 225 225 227 225 223 226 230 207 224 224 217 199 201 192 200 181 168 178 190 195 195 191 190 187 187 188 177 176 212 242 269 292 295
226 224 222 223 220 220 219 221 216 222 222 221 223 226 229 217 224 229 222 231 234 201 221 213 200 195 201 180 153 181 190 196 197 193 190 188 180 181 189 221 267 294 303
225 221 219 217 216 212 212 213 212 218 220 221 228 220 228 227 198 211 219 222 229 225 222 226 222 208 199 200 171 177 185 194 206 205 202 189 186 197 204 207 252 294 304
225 217 214 210 210 209 209 209 210 216 217 217 223 236 247 257 225 214 208 223 225 226 231 223 234 233 213 208 189 153 177 194 206 214 212 204 202 199 196 199 232 272 290
224 217 213 209 206 204 206 205 205 215 218 216 211 213 228 241 245 244 231 216 214 220 230 232 228 234 233 223 212 186 179 197 208 218 220 215 212 208 208 216 232 247 266
217 214 212 209 205 200 201 203 204 212 218 218 213 208 206 214 227 233 242 242 234 225 233 236 240 235 232 233 221 159 182 202 210 218 225 225 222 222 224 230 239 247 253
212 213 211 208 202 197 198 199 200 207 213 214 212 213 214 222 229 228 239 245 241 229 234 234 233 237 233 236 216 169 200 210 213 215 219 224 223 225 231 241 251 258 259
140 177 197 196 196 197 197 193 191 198 205 207 209 210 211 217 210 216 226 226 236 230 223 228 196 218 236 237 167 201 210 198 212 215 216 218 219 223 229 237 248 259 265
60 101 137 166 177 185 191 194 195 195 200 205 206 207 207 199 199 208 211 210 223 232 219 210 197 164 221 242 150 231 236 175 201 211 215 217 219 224 231 235 240 248 254
45 85 97 127 144 152 170 186 193 197 202 200 201 208 207 202 196 201 205 210 217 233 234 175 190 172 219 216 181 251 239 147 200 206 214 218 220 225 231 235 239 241 243
35 51 65 76 82 95 120 144 167 184 191 187 188 192 197 191 191 196 199 206 212 216 227 207 205 197 216 220 185 219 204 210 178 186 207 215 221 228 234 238 241 242 243
41 47 57 69 74 72 76 92 119 151 161 175 176 178 182 171 186 185 188 195 198 201 213 208 183 195 210 197 220 195 200 207 173 138 177 202 219 234 243 252 255 254 252
38 45 52 56 63 64 63 71 91 114 132 152 164 169 175 174 180 178 182 179 184 185 195 193 171 152 154 160 176 151 157 141 131 130 143 137 104 81 25 330 308 288 273
36 40 44 48 53 55 51 53 62 76 92 106 121 130 144 158 161 170 175 172 172 166 174 175 159 147 125 141 177 151 132 113 105 99 87 88 100 97 76 53 33 9 334
36 38 40 41 44 47 41 35 49 76 87 98 102 101 86 75 64 71 113 155 164 161 158 157 148 139 135 144 133 135 119 117 92 70 86 80 88 72 67 60 45 30 23
35 36 37 37 41 42 40 38 28 71 85 93 98 96 108 113 104 96 79 66 53 130 148 147 140 134 118 111 101 120 134 143 105 62 75 70 65 62 52 45 40 44 43
38 36 35 37 42 42 38 42 34 51 71 74 84 96 94 98 127 118 115 116 87 62 36 99 114 103 103 104 118 114 99 83 82 75 84 80 70 65 61 55 50 49 48
38 36 35 36 41 42 39 38 29 58 66 65 64 76 95 100 83 101 113 102 88 72 53 72 82 73 64 70 81 89 98 106 105 87 64 79 75 69 68 68 60 56 52
38 39 39 38 40 42 38 33 24 65 70 66 59 54 58 87 58 27 114 109 102 89 71 68 69 77 65 40 12 113 134 139 114 94 63 83 109 97 86 86 78 71 65
40 45 45 40 39 40 38 32 21 59 69 73 71 70 55 62 62 7 112 114 109 107 112 111 106 116 96 76 21 50 49 88 114 99 60 73 139 140 105 73 62 66 75